Probability
0 0 0 1 3 3 3 4 11 23 33 31 22 14 7 2 2 2 1 0 0 0 0 0 0 0 0 0 0 0 0 0 0 0 0 0 0 0 0 0 0 0 0
0 0 0 1 2 2 2 3 6 13 20 23 18 12 6 2 1 1 0 0 0 0 0 0 0 0 0 0 0 0 0 0 0 0 0 0 0 0 0 0 0 0 0
0 0 0 1 1 1 1 1 1 3 7 10 10 7 3 1 0 0 0 0 0 0 0 0 0 0 0 0 0 0 0 0 0 0 0 0 0 0 0 0 0 0 0
0 0 0 0 0 0 0 0 0 0 1 2 3 2 1 0 0 0 0 0 0 0 0 0 0 0 0 0 0 0 0 0 0 0 0 0 0 0 0 0 0 0 0
0 0 0 0 0 0 0 0 0 0 0 0 0 0 0 0 0 0 0 0 0 0 0 0 0 0 0 0 0 0 0 0 0 0 0 0 1 1 1 0 0 0 0
0 0 0 0 0 0 0 0 0 0 0 0 0 0 0 0 0 0 0 0 0 0 0 0 0 0 0 0 0 0 0 0 0 0 0 1 4 6 3 0 0 1 1
0 0 0 0 0 0 0 0 1 1 0 0 0 0 0 0 0 0 0 0 0 0 0 0 0 0 0 0 0 0 0 0 0 0 0 2 9 12 6 2 3 4 4
0 0 0 0 0 0 0 0 1 1 0 0 0 0 0 0 0 0 0 0 0 0 0 0 0 0 0 0 0 0 0 0 0 0 0 3 11 15 11 8 9 9 7
0 0 0 0 0 0 0 0 1 1 0 0 0 0 0 0 0 0 0 0 0 0 0 1 1 0 0 0 0 0 0 0 0 0 0 4 10 13 12 12 12 10 9
0 0 0 0 0 0 0 0 0 0 0 0 0 0 0 0 0 0 0 0 0 0 0 1 1 0 0 0 0 0 0 0 0 0 0 4 10 11 10 11 10 8 7
1 0 0 0 0 0 0 0 0 0 0 0 0 0 0 0 0 0 0 0 0 0 0 1 1 0 0 0 0 0 0 0 0 0 0 3 8 10 10 11 12 10 8
3 1 0 0 0 0 0 0 0 0 0 0 0 0 0 0 0 0 0 0 0 0 0 0 0 0 0 0 0 0 0 0 0 0 0 2 5 7 10 13 17 18 17
5 2 0 0 0 0 0 0 0 0 0 0 0 0 0 0 0 0 0 0 0 0 0 0 0 0 0 0 0 0 0 0 0 0 0 2 4 6 8 14 19 23 26
5 3 0 0 0 0 0 0 0 0 0 0 0 0 0 0 0 0 0 0 0 0 0 0 0 0 0 0 0 0 0 0 0 0 0 2 5 6 6 10 16 20 23
3 2 0 0 1 1 0 0 0 0 0 0 0 0 0 0 0 0 1 1 1 0 1 1 0 0 0 0 0 0 0 0 0 0 0 2 4 5 4 6 9 11 13
5 3 1 1 2 2 1 0 0 0 0 1 1 0 0 0 0 0 1 2 1 1 1 1 1 1 1 1 1 1 1 1 1 1 1 1 2 2 3 3 4 5 5
13 10 5 3 4 5 3 1 0 0 0 1 1 1 0 0 0 0 1 2 2 1 1 1 1 2 2 2 2 2 3 3 3 2 2 2 2 1 1 2 2 2 2
26 20 12 6 7 8 9 8 5 4 3 2 1 1 2 2 2 2 2 3 3 2 2 2 3 3 4 4 3 3 3 3 3 3 4 4 4 3 2 1 1 1 1
41 34 25 18 16 16 18 17 13 10 7 4 3 3 3 3 3 3 4 4 4 3 3 4 5 5 5 3 2 2 2 2 3 4 4 5 5 5 4 2 1 0 0
55 50 43 36 30 26 24 21 16 12 9 6 4 3 2 1 2 2 3 3 3 3 4 5 6 5 3 2 1 0 1 1 2 3 4 4 4 4 4 3 2 1 1
65 62 57 49 39 30 25 19 14 10 7 4 3 1 0 0 0 1 1 1 1 2 3 3 3 2 1 0 0 0 0 1 1 2 2 2 2 2 2 2 2 2 2
65 63 57 48 37 26 20 14 9 6 4 1 1 0 0 0 0 0 0 0 0 1 1 1 0 0 0 0 0 0 0 0 0 1 1 1 1 1 1 1 1 1 1
53 50 44 37 28 19 13 7 4 2 1 0 0 0 0 0 0 0 0 0 0 0 0 0 0 0 0 0 0 0 0 0 0 0 0 0 0 0 0 0 0 0 0
34 32 28 23 19 14 8 4 1 0 0 0 0 0 0 0 0 0 0 0 0 0 0 0 0 0 0 0 0 0 0 0 0 0 0 0 0 0 0 0 0 0 0
19 18 17 15 13 10 7 4 2 0 0 0 0 0 0 0 0 0 0 0 0 0 0 0 0 0 0 0 0 0 0 0 0 0 0 0 0 0 0 0 0 0 0
11 11 12 12 11 9 6 3 1 0 0 0 0 0 0 0 0 0 0 0 0 0 0 0 0 0 0 0 0 0 0 0 0 0 0 0 0 0 0 0 0 0 0
Wind_Speed
10 14 15 12 10 9 9 11 12 13 13 14 13 13 12 11 10 10 9 9 8 9 9 10 10 10 9 9 9 8 7 6 5 5 4 5 4 4 4 4 6 6 10
12 15 16 12 11 10 10 11 12 13 13 13 13 12 12 11 10 9 8 7 7 8 8 9 9 9 9 8 8 7 5 4 3 2 3 6 6 4 4 3 4 6 7
12 15 16 13 12 11 10 11 12 12 13 13 12 12 11 10 9 8 7 6 6 6 7 8 8 8 8 7 6 5 4 2 1 1 5 6 7 7 5 5 2 4 5
13 13 14 15 13 12 11 11 11 12 12 12 11 11 10 9 8 7 6 6 6 6 6 7 7 7 6 6 4 3 3 2 0 4 8 4 4 9 6 5 5 6 7
12 11 14 15 14 13 12 11 11 12 11 11 10 10 9 8 7 6 6 5 5 5 5 6 6 6 5 4 4 3 2 1 3 9 4 2 2 7 5 5 6 7 8
12 12 15 13 14 13 13 12 12 12 11 10 9 9 8 7 6 6 5 5 5 5 4 4 4 4 4 4 3 3 2 2 9 5 1 2 2 7 3 3 4 6 8
12 11 15 12 13 13 13 12 12 11 10 9 9 8 7 6 6 5 4 4 4 4 4 3 4 5 5 4 4 3 2 4 9 1 1 2 5 5 2 2 2 3 5
11 11 13 12 12 13 12 11 10 9 9 8 8 7 7 6 5 4 4 4 4 4 4 5 5 6 5 5 4 4 3 7 5 2 1 1 7 3 2 1 0 0 1
11 11 12 13 13 12 10 10 10 9 8 8 8 7 6 5 5 4 4 5 5 5 5 6 6 6 6 6 5 4 2 4 7 2 1 2 6 2 1 1 0 0 1
10 9 10 10 12 12 12 11 10 9 8 8 7 6 6 6 6 5 5 7 6 6 6 6 6 6 5 5 5 3 2 7 4 2 1 6 5 2 1 1 1 2 2
9 8 9 9 9 9 10 11 11 9 8 8 8 7 6 6 5 6 8 7 6 6 6 6 5 4 3 6 4 0 5 3 1 1 3 7 3 2 1 1 2 3 3
12 10 9 9 10 9 7 9 7 8 8 6 5 6 4 2 1 2 9 6 6 5 5 5 3 4 6 3 5 5 1 2 2 1 5 6 4 2 1 1 2 3 4
13 11 9 9 8 8 6 6 5 4 5 5 5 4 2 2 3 2 3 6 5 5 3 5 5 2 1 1 3 2 2 4 2 1 5 7 4 3 2 1 1 2 3
12 11 9 10 8 7 5 5 5 5 4 4 5 5 4 2 2 1 1 0 2 2 0 2 1 1 2 2 3 4 3 4 3 2 5 6 5 4 3 2 1 2 2
12 11 10 9 8 7 5 4 5 4 4 4 3 4 2 3 2 1 1 1 3 2 2 2 3 2 3 4 4 4 4 4 4 4 2 7 5 4 3 3 3 3 4
11 10 9 10 9 8 6 5 4 4 3 3 3 2 3 2 1 2 2 1 2 2 3 3 3 3 4 4 5 4 6 5 3 5 5 3 5 3 2 3 3 4 6
10 9 9 9 9 8 8 6 4 4 4 3 2 1 1 1 0 1 1 1 1 1 1 2 2 3 3 4 5 5 5 6 6 6 7 6 4 5 3 1 4 6 8
10 9 9 8 9 8 6 5 4 3 3 2 2 3 3 3 2 0 1 2 2 1 1 1 3 3 3 5 5 5 6 5 7 7 8 7 7 5 5 5 5 9 11
9 9 9 8 9 9 8 7 6 5 4 4 4 4 5 5 4 3 3 4 1 2 2 3 3 5 5 5 7 6 7 7 7 9 8 9 8 7 8 6 9 12 13
9 9 9 9 9 9 8 7 7 7 6 5 6 6 6 6 6 4 4 4 3 2 3 3 3 3 4 5 8 8 8 9 8 8 8 8 7 9 10 10 9 9 12
9 10 10 10 10 8 7 7 6 6 6 6 7 8 8 7 7 5 4 4 3 3 4 4 4 5 5 4 7 9 9 11 10 7 7 7 8 9 10 10 10 9 8
10 10 10 10 10 8 6 5 5 7 6 6 6 7 7 7 6 5 4 3 3 2 2 3 3 5 5 4 6 9 10 9 6 5 5 7 9 9 10 11 11 10 11
10 10 9 10 9 8 9 7 8 7 6 6 5 5 6 6 6 5 4 3 2 3 2 3 4 5 6 6 5 6 8 8 9 7 7 7 9 10 11 11 12 12 12
10 10 10 10 10 9 9 8 8 5 5 5 4 5 5 5 4 4 3 3 3 4 3 5 4 6 6 7 5 4 6 9 8 8 7 8 11 11 12 11 12 12 13
11 10 10 11 10 9 7 7 6 6 6 5 4 5 3 3 3 3 3 3 3 3 4 5 4 5 5 6 6 6 7 7 10 11 12 10 11 11 11 12 11 11 12
11 11 11 11 10 9 8 8 7 8 7 6 4 3 1 2 1 3 3 3 3 3 3 3 4 3 4 5 6 7 7 8 9 10 12 12 12 11 12 11 12 11 11
Wind_Direction
147 134 138 146 142 134 123 110 104 103 108 111 114 116 116 113 111 110 106 101 95 92 89 87 89 90 88 84 81 79 79 82 89 101 114 121 127 131 134 141 194 156 110
140 134 140 146 145 139 131 120 111 107 106 107 109 111 113 113 113 112 109 102 96 94 90 87 85 86 86 86 86 84 82 81 90 128 162 170 165 171 179 190 295 76 134
140 136 146 147 148 145 138 128 120 116 114 112 112 113 115 116 116 116 112 104 97 95 93 89 87 87 88 88 86 83 80 75 90 206 227 213 165 172 196 203 197 131 161
143 145 147 143 150 150 146 137 131 128 125 122 121 121 120 119 118 117 114 105 97 92 89 88 87 87 86 83 78 72 67 63 276 244 231 204 168 146 185 198 197 187 185
146 145 134 150 153 155 154 148 144 140 137 134 131 128 125 123 120 118 115 109 102 96 92 90 87 85 81 73 65 53 36 347 254 247 247 210 166 129 179 200 203 203 198
151 150 139 156 155 157 159 156 152 149 147 145 142 137 134 131 127 123 119 114 109 103 99 94 92 88 81 76 65 44 13 309 259 237 240 241 158 119 168 199 207 208 208
151 147 142 154 155 159 162 160 157 153 150 148 145 143 140 137 131 125 118 110 104 99 95 87 89 87 83 74 61 38 1 303 276 271 231 229 77 92 133 188 211 210 214
150 147 137 152 159 162 165 162 157 151 148 145 143 141 138 132 126 119 108 98 92 89 87 87 88 85 78 69 58 38 1 298 261 268 238 103 74 72 108 123 104 147 206
151 151 152 158 163 165 162 159 152 146 143 141 140 139 137 132 126 115 104 93 90 90 90 90 89 83 77 71 63 52 12 300 271 222 206 82 75 58 82 93 54 0 344
156 156 154 159 160 167 164 158 152 147 144 142 142 144 146 155 150 137 143 101 96 96 95 93 90 88 88 83 71 56 277 256 261 225 147 84 63 39 26 336 310 313 314
159 159 163 159 162 166 157 150 160 155 151 163 163 158 198 194 161 161 88 91 96 98 97 95 95 103 141 136 112 243 253 273 149 25 59 63 48 27 359 333 313 308 307
169 172 170 163 165 168 157 153 171 174 162 194 157 168 189 132 119 87 114 111 108 112 126 113 128 191 237 177 152 216 250 285 289 149 82 62 51 42 18 350 326 309 305
169 173 170 166 173 166 163 166 168 168 154 176 165 172 163 183 168 178 160 156 154 176 175 150 201 212 276 355 307 293 324 294 291 283 84 66 55 57 45 -0 320 297 289
171 171 170 165 171 178 169 162 172 172 169 172 157 199 180 186 197 156 238 108 210 188 141 264 245 202 270 265 276 282 265 271 286 304 84 70 51 46 41 29 3 321 300
171 170 167 173 162 167 173 185 181 173 172 160 172 179 205 211 210 209 240 284 285 295 244 259 286 291 277 260 266 275 283 287 285 289 140 101 69 46 34 26 10 347 321
174 172 165 173 165 170 176 182 175 178 169 175 179 166 213 246 239 246 234 256 299 313 334 316 311 294 287 299 283 281 280 281 271 277 283 158 137 106 33 350 333 322 311
174 171 168 169 164 173 173 174 170 168 171 167 136 132 218 259 208 245 269 240 6 10 345 291 307 288 287 286 281 283 276 277 286 277 277 277 237 169 164 287 313 309 302
173 168 168 165 158 159 152 150 144 135 128 119 111 101 80 66 73 88 73 60 41 351 333 336 306 297 298 294 292 285 281 270 265 270 268 264 273 278 232 213 271 286 287
172 166 161 151 149 145 135 129 114 104 97 96 89 81 79 73 72 69 61 57 31 22 2 337 358 325 311 311 300 286 280 280 279 272 272 271 268 268 277 254 254 264 270
163 158 148 140 136 134 128 121 115 107 103 93 84 76 77 75 67 67 81 55 17 22 15 13 346 337 316 311 301 295 282 276 273 272 270 265 266 270 276 286 283 267 259
155 151 147 140 139 141 140 139 129 115 107 97 86 79 75 69 66 50 59 62 24 36 15 354 331 309 295 314 295 288 274 259 253 258 263 275 276 281 283 280 279 283 280
152 148 143 143 143 145 130 115 108 108 98 90 86 79 74 70 61 64 47 43 37 26 22 352 334 311 304 301 303 301 293 281 245 252 277 273 284 293 287 285 286 283 279
149 149 143 138 136 128 128 122 122 120 129 122 109 94 74 71 69 56 49 27 7 318 355 331 315 317 315 307 305 307 308 312 327 291 279 281 286 284 287 288 284 281 277
139 136 134 132 128 131 140 141 145 146 132 111 109 96 92 73 64 56 39 25 351 339 344 310 355 318 306 305 310 295 298 311 298 300 291 289 287 283 282 283 284 283 277
136 134 130 126 122 123 123 126 131 119 114 118 112 105 102 92 66 43 27 6 348 335 356 340 333 320 314 317 317 309 298 285 275 279 290 291 286 284 285 286 285 281 279
135 134 131 124 119 119 118 116 112 112 113 113 110 112 144 107 74 49 8 359 335 345 343 326 315 301 320 322 307 304 300 297 297 295 292 290 287 287 290 292 285 277 275